Precipitable_Water
1.00 0.98 0.95 0.83 0.80 0.80 0.82 0.83 0.86 0.86 0.93 0.87 0.70 0.60 0.53 0.51 0.43 0.41 0.42 0.45 0.47 0.43
1.01 1.02 0.87 0.85 0.83 0.86 0.84 0.87 0.88 0.94 0.87 0.72 0.63 0.56 0.50 0.44 0.42 0.45 0.49 0.46 0.41 0.39
0.92 0.89 0.89 0.91 0.85 0.83 0.85 0.91 0.94 0.85 0.73 0.59 0.52 0.49 0.48 0.48 0.51 0.50 0.44 0.42 0.39 0.36
0.87 0.90 0.92 0.91 0.86 0.88 0.86 0.90 0.80 0.69 0.55 0.52 0.53 0.52 0.51 0.53 0.49 0.44 0.41 0.38 0.35 0.32
0.94 0.92 0.89 0.84 0.88 0.95 0.86 0.81 0.61 0.57 0.55 0.55 0.52 0.53 0.54 0.48 0.45 0.39 0.36 0.34 0.32 0.30
0.89 0.91 0.89 0.86 0.93 0.83 0.67 0.54 0.55 0.59 0.53 0.54 0.55 0.54 0.49 0.45 0.39 0.36 0.35 0.33 0.31 0.29
0.92 0.90 0.85 0.82 0.73 0.58 0.55 0.55 0.56 0.52 0.55 0.55 0.53 0.47 0.42 0.38 0.35 0.33 0.32 0.32 0.30 0.28
0.97 0.84 0.74 0.68 0.59 0.53 0.54 0.53 0.53 0.59 0.57 0.52 0.45 0.39 0.35 0.32 0.30 0.29 0.28 0.28 0.27 0.27
0.80 0.70 0.65 0.57 0.53 0.57 0.54 0.57 0.58 0.53 0.47 0.40 0.39 0.34 0.30 0.29 0.28 0.27 0.26 0.24 0.26 0.29
0.63 0.58 0.56 0.56 0.57 0.55 0.56 0.58 0.50 0.45 0.41 0.37 0.30 0.28 0.27 0.26 0.25 0.25 0.25 0.26 0.26 0.27
0.56 0.57 0.58 0.56 0.60 0.58 0.54 0.50 0.45 0.38 0.32 0.28 0.25 0.23 0.23 0.25 0.26 0.26 0.27 0.28 0.28 0.26
0.58 0.58 0.58 0.60 0.56 0.54 0.50 0.41 0.33 0.30 0.26 0.22 0.20 0.22 0.22 0.24 0.25 0.25 0.26 0.28 0.29 0.28
0.63 0.60 0.59 0.56 0.52 0.43 0.35 0.30 0.28 0.24 0.22 0.21 0.20 0.22 0.23 0.24 0.25 0.25 0.25 0.27 0.27 0.28
0.59 0.56 0.52 0.44 0.37 0.32 0.28 0.24 0.22 0.21 0.21 0.22 0.23 0.24 0.25 0.25 0.25 0.25 0.24 0.24 0.24 0.27
Wind_Speed
19 19 20 21 21 23 24 25 27 28 30 32 35 38 40 40 41 41 41 41 42 42
20 21 22 23 24 24 25 27 27 29 32 36 38 40 40 41 41 42 42 42 42 42
21 22 22 23 23 24 27 29 29 35 34 37 38 40 41 42 42 42 42 41 42 44
20 21 22 22 25 26 28 30 33 34 35 38 39 41 41 42 41 41 42 42 44 46
20 20 21 24 24 25 30 33 35 35 37 39 40 41 42 42 42 42 43 43 45 47
20 22 23 26 26 32 34 35 35 37 39 41 41 42 42 42 42 43 43 45 46 48
22 23 27 29 30 32 33 35 37 39 41 41 41 42 42 42 43 43 44 46 47 47
22 26 28 29 31 33 34 37 38 41 41 41 41 42 43 43 43 45 46 47 47 48
26 28 29 30 33 34 37 39 41 40 41 42 42 43 43 44 45 46 47 48 49 49
26 27 30 33 35 36 39 41 40 41 42 43 43 44 45 46 47 48 48 49 50 49
26 29 32 34 37 40 40 40 41 41 42 43 44 46 47 48 49 49 50 50 50 48
30 31 35 38 39 39 40 40 41 42 43 45 46 48 49 50 50 51 51 50 49 46
31 35 38 38 39 40 40 41 42 44 46 48 49 50 51 52 52 53 52 51 48 46
35 36 37 38 38 40 41 43 45 47 49 51 52 53 54 54 53 53 52 49 46 44
Wind_Direction
259 266 271 277 280 285 288 289 294 294 298 299 302 305 307 308 309 309 309 308 308 308
262 268 274 277 281 285 288 293 294 295 298 300 302 305 306 308 309 309 308 308 309 309
265 272 275 278 281 286 293 294 293 300 297 302 303 305 305 306 307 308 308 309 309 310
266 273 279 280 286 289 296 297 300 300 301 302 303 305 305 306 306 306 307 308 309 310
269 276 284 288 290 287 301 299 301 301 303 304 304 304 305 305 305 305 306 307 308 310
275 277 284 292 291 294 298 299 301 302 304 305 305 305 304 304 305 305 306 307 308 309
275 281 288 293 294 298 299 300 302 304 305 305 305 305 304 304 304 305 306 307 308 309
274 287 290 292 297 299 300 302 303 304 304 305 305 305 305 305 305 305 306 307 308 308
282 288 291 293 298 299 302 303 304 304 305 305 306 306 306 305 305 305 306 307 307 308
285 288 293 296 298 300 302 304 304 305 305 306 306 306 305 305 305 305 306 306 307 308
288 292 296 298 299 302 303 304 304 305 305 306 306 306 306 305 305 305 305 306 307 306
294 294 299 299 301 302 303 304 304 305 306 306 307 307 307 305 305 305 305 305 305 304
296 298 300 302 303 303 303 304 305 305 306 306 307 307 307 306 305 305 305 304 303 302
299 301 302 303 303 304 304 305 305 305 306 306 307 307 306 306 305 304 304 303 302 301